Regional Weather Roundup
Issued by NWS Newport/Morehead, NC

Current Version | Previous Version | Graphics & Text | Print | Product List | Glossary Off
Versions: 1 2 3 4 5 6 7 8 9 10 11 12 13 14 15 16 17 18 19 20 21 22 23 24 25 26 27 28 29 30 31 32 33 34 35 36 37 38 39 40 41 42 43 44 45 46 47 48 49 50

000
ASUS42 KMHX 182313
RWRMHX
WEATHER ROUNDUP FOR EASTERN NORTH CAROLINA
NATIONAL WEATHER SERVICE NEWPORT/MOREHEAD CITY NC
600 PM EST THU JAN 18 2018

NOTE: "FAIR" INDICATES FEW OR NO CLOUDS BELOW 12,000 FEET
WITH NO SIGNIFICANT WEATHER AND/OR OBSTRUCTIONS TO VISIBILITY

NCZ015>017-031-032-045>047-102-103-190000-
NORTH COAST

CITY           SKY/WX    TMP DP  RH WIND       PRES   REMARKS
EDENTON        FAIR      35  23  60 W8        30.20R
ELIZABETH CITY FAIR      33  22  63 W10       30.17R
KITTY HAWK     FAIR      32  21  65 MISG      30.15R
MANTEO         FAIR      33  18  54 W9G16     30.17R

$$

NCZ045>047-081-094-103-104-190000-
CENTRAL COAST

CITY           SKY/WX    TMP DP  RH WIND       PRES   REMARKS
FRISCO         FAIR      35  24  64 W12G18    30.18R

$$

NCZ095-097-098-100-101-190000-
SOUTHERN COAST

CITY           SKY/WX    TMP DP  RH WIND       PRES   REMARKS
BEAUFORT       FAIR      35  19  52 W10       30.23R
CEDAR ISLAND   NOT AVBL
JACKSONVILLE   FAIR      33  19  56 W7        30.25R
PINEY ISLAND   NOT AVBL
WILMINGTON     FAIR      35  16  45 NW6       30.25F


$$

NCZ011>013-027>030-043-044-078>080-089-090>093-098-190000-
COASTAL PLAIN

CITY           SKY/WX    TMP DP  RH WIND       PRES   REMARKS
AHOSKIE        FAIR      28  22  78 CALM      30.20S
CLINTON        FAIR      34  21  59 CALM      30.26S
ELIZABETHTOWN  NOT AVBL
GOLDSBORO      FAIR      30  19  64 W10       30.22F
GREENVILLE     FAIR      32  21  64 W3        30.23S
HAVELOCK       NOT AVBL
KENANSVILLE    FAIR      32  18  55 W3        30.25S
KINSTON        FAIR      34  19  55 W7        30.25
NEW BERN       FAIR      32  19  58 W8        30.24R
RICHLANDS      FAIR      32  17  54 CALM      30.25S
ROCKY MOUNT    NOT AVBL
WASHINGTON     FAIR      33  19  58 W7        30.22S
WHITEVILLE     FAIR      34  17  48 CALM      30.26S

$$

AMZ130-135-150-152-154-156-158-170-250-252-270-ANZ085-086-088-633-658-670-190000-
MARINE OBSERVATIONS

STATION/POSITION TIME  TEMP    WIND        PRES    WAVE   SWELL
                       AIR SEA DIR/SP/G            HT/PER HT/PER
                 (UTC) (F)     (DEG/KT/KT) (MB)    (FT/S) (FT/S)
CHESAPEAKE LIGHT NOT AVBL
64 E VA BEACH    2250   41 58  270/ 19/ 23 1019.4    7/ 6
DUCK             2248   35 38  260/ 15/ 20 1020.5
2 E DUCK         2230      39                N/A     4/ 8   2/11
OREGON INLET     2248          250/ 12/ 16   N/A
13E OREGON INLT  2248      42                N/A     6/ 8   5/ 8
HATTERAS CG      2248   37 41  280/ 16/ 21 1021.6
DIAMOND BUOY     2300   40 42  290/ 19/ 23 1022.1
CAPE LOOKOUT     2300          290/ 15/ 19 1023.3
BEAUFORT LAB     2248   36 44  290/  7/ 12 1023.4
30 SE NEW RVR IN 2208   41 58  330/ 16/ 19 1023.6
30 SE NEW RVR IN 2230      57                N/A     4/11   2/11
27 SE WRIGHTSVLE 2208   40 59  300/ 16/ 25 1024.0
5 SE WRIGHTSVLE  2208   39 46  310/ 12/ 16 1024.0
225 S CAPE HAT   2250   54 70  340/ 17/ 23 1021.8   12/ 9  10/ 9
41 SE CHARLESTON 2300   46 68  310/ 12/ 17 1025.7

$$




USA.gov is the U.S. government's official web portal to all federal, state and local government web resources and services.